GW7366 Weather Reports


time (UTC)temp
C
wind
direction
speed
KPH
gust
KPH
rain 1hr
cm
rain 24hr
cm
rain mn
cm
humidity
%
barometer
mb
20260504023425 12 150 1.6 3.2 0.00 0.00 0.00 73 1010.8
20260504022920 12 81 0.0 6.4 0.00 0.00 0.00 74 1010.8
20260504022417 12 108 0.0 4.8 0.00 0.00 0.00 73 1010.5
20260504021914 12 159 3.2 6.4 0.00 0.00 0.00 73 1010.5
20260504021411 12 159 3.2 6.4 0.00 0.00 0.00 73 1010.5
20260504020908 12 159 1.6 3.2 0.00 0.00 0.00 75 1010.5
20260504020405 12 159 0.0 3.2 0.00 0.00 0.00 75 1010.5
20260504015901 12 159 0.0 0.0 0.00 0.00 0.00 74 1010.5
20260504015357 13 159 0.0 0.0 0.00 0.00 0.00 73 1010.5
20260504014853 13 159 1.6 4.8 0.00 0.00 0.00 73 1010.5
20260504014349 13 158 0.0 1.6 0.00 0.00 0.00 73 1010.5
20260504013847 13 158 1.6 4.8 0.00 0.00 0.00 72 1010.5
20260504013345 13 158 0.0 3.2 0.00 0.00 0.00 72 1010.5
20260504012841 13 158 1.6 4.8 0.00 0.00 0.00 71 1010.5
20260504012339 13 158 0.0 0.0 0.00 0.00 0.00 70 1010.5
20260504011836 13 158 1.6 4.8 0.00 0.00 0.00 69 1010.5
20260504011332 14 158 0.0 1.6 0.00 0.00 0.00 69 1010.5
20260504010829 14 158 1.6 4.8 0.00 0.00 0.00 68 1010.5
20260504010324 15 130 0.0 3.2 0.00 0.00 0.00 68 1010.5
20260504005821 15 130 0.0 0.0 0.00 0.00 0.00 66 1010.5
20260504005318 15 265 0.0 0.0 0.00 0.00 0.00 65 1010.5
20260504004816 15 170 0.0 0.0 0.00 0.00 0.00 64 1010.5
20260504004313 16 170 0.0 3.2 0.00 0.00 0.00 63 1010.5
20260504003809 16 247 0.0 1.6 0.00 0.00 0.00 61 1010.5
20260504003307 16 247 0.0 3.2 0.00 0.00 0.00 59 1010.5
20260504002803 16 193 1.6 6.4 0.00 0.00 0.00 59 1010.5
20260504002300 17 193 4.8 8.0 0.00 0.00 0.00 58 1010.5
20260504001757 16 199 4.8 11.3 0.00 0.00 0.00 59 1010.5
20260504001254 17 216 3.2 8.0 0.00 0.00 0.00 60 1010.5
20260504000751 17 201 3.2 8.0 0.00 0.00 0.00 58 1010.5
20260504000248 17 137 3.2 12.9 0.00 0.00 0.00 58 1010.5
20260503235746 17 237 1.6 4.8 0.00 0.00 0.00 56 1010.5
20260503235243 17 224 6.4 19.3 0.00 0.00 0.00 57 1010.5
20260503234741 17 221 3.2 6.4 0.00 0.00 0.00 58 1010.5
20260503234239 17 201 4.8 8.0 0.00 0.00 0.00 59 1010.5
20260503233735 17 203 3.2 6.4 0.00 0.00 0.00 58 1010.8
20260503233231 17 178 3.2 8.0 0.00 0.00 0.00 57 1010.8
20260503232728 17 193 3.2 8.0 0.00 0.00 0.00 58 1010.8
20260503232226 17 203 4.8 9.7 0.00 0.00 0.00 58 1010.8
20260503231724 17 210 8.0 14.5 0.00 0.00 0.00 57 1010.8
20260503231220 17 184 4.8 9.7 0.00 0.00 0.00 57 1010.8
20260503230716 18 208 4.8 11.3 0.00 0.00 0.00 54 1010.8
20260503230214 17 202 6.4 12.9 0.00 0.00 0.00 56 1010.8
20260503225711 17 210 3.2 9.7 0.00 0.00 0.00 57 1010.8
20260503225206 17 185 4.8 8.0 0.00 0.00 0.00 56 1011.2
20260503224704 17 205 6.4 12.9 0.00 0.00 0.00 56 1011.2
20260503224201 18 208 6.4 11.3 0.00 0.00 0.00 54 1011.2
20260503223659 18 165 6.4 14.5 0.00 0.00 0.00 53 1011.2
20260503223156 17 196 6.4 16.1 0.00 0.00 0.00 54 1011.2
20260503222652 17 208 6.4 16.1 0.00 0.00 0.00 56 1011.2
20260503222150 17 193 9.7 17.7 0.00 0.00 0.00 56 1011.2
20260503221648 17 213 9.7 20.9 0.00 0.00 0.00 56 1011.2
20260503221145 16 196 9.7 16.1 0.00 0.00 0.00 57 1011.2
20260503220642 16 205 6.4 12.9 0.00 0.00 0.00 57 1011.5
20260503220138 16 228 8.0 14.5 0.00 0.00 0.00 57 1011.5
20260503215636 16 208 4.8 11.3 0.00 0.00 0.00 58 1011.5
20260503215132 16 213 6.4 12.9 0.00 0.00 0.00 57 1011.5
20260503214631 16 208 8.0 12.9 0.00 0.00 0.00 57 1011.2
20260503214126 16 195 8.0 12.9 0.00 0.00 0.00 55 1011.2
20260503213625 17 193 8.0 17.7 0.00 0.00 0.00 56 1011.2
20260503213122 17 180 6.4 14.5 0.00 0.00 0.00 54 1011.2
20260503212619 17 205 6.4 11.3 0.00 0.00 0.00 54 1011.2
20260503212116 18 220 9.7 19.3 0.00 0.00 0.00 52 1011.5
20260503211614 18 201 11.3 19.3 0.00 0.00 0.00 51 1011.2
20260503211109 18 196 9.7 17.7 0.00 0.00 0.00 50 1011.5
20260503210606 18 191 8.0 16.1 0.00 0.00 0.00 52 1011.5
20260503205559 17 204 6.4 12.9 0.00 0.00 0.00 52 1011.5
20260503205055 17 212 8.0 11.3 0.00 0.00 0.00 52 1011.9
20260503204552 18 201 12.9 24.1 0.00 0.00 0.00 52 1011.9
20260503204049 18 206 9.7 16.1 0.00 0.00 0.00 53 1011.5
20260503203546 18 191 9.7 17.7 0.00 0.00 0.00 51 1011.9
20260503203043 18 202 11.3 19.3 0.00 0.00 0.00 51 1011.5
20260503202541 18 170 16.1 35.4 0.00 0.00 0.00 50 1011.5
20260503202039 18 203 8.0 19.3 0.00 0.00 0.00 51 1011.5
20260503201532 18 182 6.4 12.9 0.00 0.00 0.00 52 1011.9
20260503201028 17 148 8.0 24.1 0.00 0.00 0.00 52 1012.3
20260503200524 17 213 12.9 20.9 0.00 0.00 0.00 51 1012.3
20260503200021 17 204 6.4 17.7 0.00 0.00 0.00 52 1012.3
20260503195519 17 187 11.3 25.7 0.00 0.00 0.00 51 1012.6
20260503195015 17 204 9.7 20.9 0.00 0.00 0.00 52 1012.6
20260503194513 17 180 9.7 24.1 0.00 0.00 0.00 51 1012.6
20260503194012 17 191 6.4 14.5 0.00 0.00 0.00 51 1013.0
20260503193509 17 198 11.3 17.7 0.00 0.00 0.00 50 1013.0
20260503193004 17 204 16.1 40.2 0.00 0.00 0.00 49 1013.0
20260503192501 17 212 8.0 17.7 0.00 0.00 0.00 49 1013.3
20260503191956 17 213 9.7 19.3 0.00 0.00 0.00 49 1013.3
20260503191454 18 182 12.9 20.9 0.00 0.00 0.00 48 1013.3
20260503190950 17 210 8.0 17.7 0.00 0.00 0.00 49 1013.3
20260503190448 16 187 11.3 19.3 0.00 0.00 0.00 49 1013.6
20260503185944 16 201 6.4 20.9 0.00 0.00 0.00 50 1013.6
20260503185441 16 185 8.0 16.1 0.00 0.00 0.00 50 1014.0
20260503184940 16 183 6.4 11.3 0.00 0.00 0.00 52 1014.0
20260503184437 16 190 9.7 19.3 0.00 0.00 0.00 51 1014.0
20260503183933 16 188 9.7 16.1 0.00 0.00 0.00 50 1014.3
20260503183430 17 190 9.7 24.1 0.00 0.00 0.00 51 1014.3
20260503182927 17 204 8.0 19.3 0.00 0.00 0.00 48 1014.3
20260503182426 17 191 6.4 14.5 0.00 0.00 0.00 52 1014.7
20260503181923 16 193 6.4 12.9 0.00 0.00 0.00 52 1015.0
20260503181420 15 203 6.4 11.3 0.00 0.00 0.00 55 1015.3
20260503180916 15 203 8.0 19.3 0.00 0.00 0.00 55 1015.7
20260503180414 14 190 6.4 11.3 0.00 0.00 0.00 58 1016.0
20260503175910 14 195 6.4 12.9 0.00 0.00 0.00 57 1016.4
20260503175408 14 204 4.8 11.3 0.00 0.00 0.00 56 1016.4
20260503174903 14 234 4.8 9.7 0.00 0.00 0.00 58 1016.4
20260503174403 14 230 6.4 9.7 0.00 0.00 0.00 56 1016.4
20260503173857 14 201 8.0 16.1 0.00 0.00 0.00 55 1016.0
20260503173354 15 239 12.9 24.1 0.00 0.00 0.00 55 1016.0
20260503172850 15 212 6.4 11.3 0.00 0.00 0.00 56 1016.0
20260503172348 15 238 8.0 12.9 0.00 0.00 0.00 55 1016.0
20260503171843 15 201 9.7 17.7 0.00 0.00 0.00 54 1016.0
20260503171341 15 217 9.7 16.1 0.00 0.00 0.00 56 1016.0
20260503170838 15 208 6.4 9.7 0.00 0.00 0.00 57 1016.4
20260503170335 15 198 3.2 12.9 0.00 0.00 0.00 56 1016.4
20260503150727 13 224 11.3 22.5 0.00 0.00 0.00 64 1017.8
20260503150223 12 213 9.7 16.1 0.00 0.00 0.00 64 1018.1
20260503140147 13 225 8.0 16.1 0.00 0.00 0.00 64 1018.8
20260503131117 10 188 8.0 12.9 0.00 0.00 0.00 69 1019.2
20260503130615 10 210 6.4 9.7 0.00 0.00 0.00 68 1018.8
20260503130112 10 227 8.0 14.5 0.00 0.00 0.00 70 1018.8
20260503110504 5 180 3.2 6.4 0.00 0.00 0.00 75 1018.1
20260503090355 5 221 4.8 6.4 0.00 0.00 0.00 75 1018.1
20260503081323 5 95 0.0 0.0 0.00 0.00 0.00 76 1018.5
20260503080819 4 95 0.0 0.0 0.00 0.00 0.00 77 1018.5
20260503080317 4 95 0.0 0.0 0.00 0.00 0.00 77 1018.5
20260503072753 3 317 0.0 0.0 0.00 0.00 0.00 81 1018.5
20260503072250 3 317 0.0 0.0 0.00 0.00 0.00 82 1018.5
20260503071746 3 317 0.0 0.0 0.00 0.00 0.00 81 1018.5
20260503071243 3 317 0.0 0.0 0.00 0.00 0.00 81 1018.5
20260503070739 3 317 0.0 0.0 0.00 0.00 0.00 81 1018.5
20260503070237 3 317 0.0 0.0 0.00 0.00 0.00 81 1018.5
20260503060202 3 317 0.0 0.0 0.00 0.00 0.00 84 1019.2
20260503054649 3 317 0.0 0.0 0.00 0.00 0.00 82 1019.2
20260503054146 3 317 0.0 0.0 0.00 0.00 0.00 81 1019.2
20260503053644 4 317 0.0 0.0 0.00 0.00 0.00 81 1019.2
20260503053143 3 317 0.0 0.0 0.00 0.00 0.00 81 1019.2
20260503052639 4 317 0.0 0.0 0.00 0.00 0.00 81 1019.2
20260503052135 4 317 0.0 0.0 0.00 0.00 0.00 81 1019.5
20260503051630 4 317 0.0 0.0 0.00 0.00 0.00 80 1019.2
20260503051129 5 317 0.0 0.0 0.00 0.00 0.00 80 1019.5
20260503050625 5 317 0.0 0.0 0.00 0.00 0.00 80 1019.5
20260503050122 5 317 0.0 0.0 0.00 0.00 0.00 79 1019.5
20260503045620 5 317 0.0 0.0 0.00 0.00 0.00 79 1019.5
20260503045116 5 317 0.0 0.0 0.00 0.00 0.00 78 1019.5
20260503044613 5 317 0.0 0.0 0.00 0.00 0.00 78 1019.5
20260503044111 5 317 0.0 0.0 0.00 0.00 0.00 79 1019.5
20260503043607 5 317 0.0 0.0 0.00 0.00 0.00 79 1019.5
20260503043104 5 317 0.0 0.0 0.00 0.00 0.00 77 1019.5
20260503042600 5 317 0.0 0.0 0.00 0.00 0.00 77 1019.5
20260503042056 5 317 0.0 0.0 0.00 0.00 0.00 77 1019.5
20260503041553 5 317 0.0 0.0 0.00 0.00 0.00 77 1019.2
20260503041051 5 317 0.0 0.0 0.00 0.00 0.00 77 1019.5
20260503040548 5 317 0.0 0.0 0.00 0.00 0.00 76 1019.5
20260503040045 5 317 0.0 0.0 0.00 0.00 0.00 77 1019.5
20260503035542 5 317 0.0 0.0 0.00 0.00 0.00 76 1019.5
20260503035040 5 317 0.0 0.0 0.00 0.00 0.00 75 1019.5
20260503034537 5 317 0.0 0.0 0.00 0.00 0.00 75 1019.5
20260503034034 5 317 0.0 0.0 0.00 0.00 0.00 76 1019.5
20260503033531 5 317 0.0 0.0 0.00 0.00 0.00 78 1019.5
20260503033029 5 317 0.0 0.0 0.00 0.00 0.00 79 1019.5
20260503032527 5 317 0.0 0.0 0.00 0.00 0.00 79 1019.5
20260503032025 5 317 0.0 0.0 0.00 0.00 0.00 77 1019.5
20260503031522 5 317 0.0 0.0 0.00 0.00 0.00 77 1019.8
20260503031019 5 317 0.0 0.0 0.00 0.00 0.00 80 1019.8
20260503030515 5 317 0.0 0.0 0.00 0.00 0.00 82 1019.8
20260503030013 5 317 0.0 0.0 0.00 0.00 0.00 84 1019.8
20260503025509 5 317 0.0 0.0 0.00 0.00 0.00 82 1019.8
20260503025007 5 317 0.0 0.0 0.00 0.00 0.00 77 1019.8
20260503024503 5 317 0.0 0.0 0.00 0.00 0.00 78 1019.8
20260503024000 6 317 0.0 0.0 0.00 0.00 0.00 80 1019.8